Baker, MT

4:48 PM MST on February 08, 2016 (GMT -0700)
Baker Municipal

Weather History for KBHK - January, 2014

Change the Weather History Date:

Wednesday, January 29, 2014

  Actual Average Record
Temperature  
Mean Temperature 27 °F -  
Max Temperature 39 °F 38 °F 50 °F (2012)
Min Temperature 14 °F 5 °F -23 °F (2004)
Degree Days  
Heating Degree Days 38    
Moisture  
Dew Point 16 °F    
Average Humidity 70    
Maximum Humidity 89    
Minimum Humidity 45    
Precipitation  
Precipitation 0.12 in - - ()
Sea Level Pressure  
Sea Level Pressure 29.58 in    
Wind  
Wind Speed 13 mph (NNW)    
Max Wind Speed 20 mph    
Max Gust Speed 20 mph    
Visibility 6 miles    
Events Fog , Snow    
Averages and records for this station are not official NWS values.
T = Trace of Precipitation, MM = Missing Value Source: NWS Daily Summary

Daily Weather History Graph

Daily Weather History Graph

Search for Another Location

Airport or City:

Trip Planner

Search our weather history database for the weather conditions in past years. The results will help you decide how hot, cold, wet, or windy it might be!

Date:

Astronomy

Jan. 29, 2014 Rise Set
Actual Time 7:23 AM MST 4:57 PM MST
Civil Twilight 6:51 AM MST 5:29 PM MST
Nautical Twilight 6:15 AM MST 6:05 PM MST
Astronomical Twilight 5:39 AM MST 6:41 PM MST
Moon 6:02 AM MST (1/29) 4:00 PM MST (1/29)
Length of Visible Light 10h 38m
Length of Day
9h 33m
Waning Crescent, 2% of the Moon is Illuminated
Jan 29
Waning Crescent
Jan 30
New
Feb 6
First Quarter
Feb 14
Full
Feb 22
Last Quarter

Hourly Weather History & Observations

Time (MST) Temp. Windchill Dew Point Humidity Pressure Visibility Wind Dir Wind Speed Gust Speed Precip Events Conditions
12:51 AM 25.0 °F 12.2 °F 7.0 °F 46% 29.83 in 10.0 mi WSW 16.1 mph - N/A   Clear
1:51 AM 25.0 °F 10.9 °F 7.0 °F 46% 29.79 in 10.0 mi WSW 19.6 mph - N/A   Clear
2:51 AM 27.0 °F 13.9 °F 8.1 °F 45% 29.77 in 10.0 mi WSW 18.4 mph - N/A   Clear
3:51 AM 24.1 °F 10.6 °F 8.1 °F 51% 29.76 in 10.0 mi WSW 17.3 mph - N/A   Clear
4:51 AM 26.1 °F 14.0 °F 9.0 °F 49% 29.77 in 10.0 mi West 15.0 mph - N/A   Clear
5:51 AM 21.0 °F 13.4 °F 9.0 °F 60% 29.79 in 10.0 mi WNW 5.8 mph - N/A   Clear
6:51 AM 21.0 °F 13.4 °F 10.9 °F 65% 29.79 in 10.0 mi West 5.8 mph - N/A   Clear
7:51 AM 19.9 °F 10.1 °F 10.9 °F 68% 29.78 in 10.0 mi WSW 8.1 mph - N/A   Clear
8:51 AM 28.9 °F 20.4 °F 15.1 °F 56% 29.74 in 10.0 mi West 9.2 mph - N/A   Clear
9:51 AM 35.1 °F 25.5 °F 18.0 °F 50% 29.70 in 10.0 mi West 15.0 mph - N/A   Clear
10:51 AM 39.0 °F 29.6 °F 21.0 °F 49% 29.68 in 10.0 mi WNW 18.4 mph - N/A   Clear
11:51 AM 39.0 °F 30.3 °F 21.0 °F 49% 29.64 in 10.0 mi WNW 16.1 mph - N/A   Clear
12:51 PM 39.0 °F 31.0 °F 21.9 °F 50% 29.59 in 10.0 mi WNW 13.8 mph - N/A   Clear
1:51 PM 37.9 °F 31.5 °F 21.9 °F 53% 29.54 in 10.0 mi WNW 9.2 mph - N/A   Clear
2:51 PM 37.0 °F 29.8 °F 21.9 °F 54% 29.54 in 10.0 mi WNW 10.4 mph - N/A   Clear
3:51 PM 36.0 °F 30.3 °F 21.9 °F 57% 29.52 in 10.0 mi NW 6.9 mph - N/A   Overcast
4:51 PM 33.1 °F 30.0 °F 24.1 °F 70% 29.50 in 10.0 mi NE 3.5 mph - N/A   Overcast
5:43 PM 32.0 °F 24.2 °F 23.0 °F 69% 29.44 in 6.0 mi ENE 9.2 mph - 0.00 in Snow Light Snow
5:51 PM 28.9 °F 19.8 °F 23.0 °F 78% 29.52 in 2.5 mi ENE 10.4 mph - 0.00 in Snow Light Snow
6:01 PM 28.0 °F 17.0 °F 23.0 °F 81% 29.43 in 1.8 mi ENE 13.8 mph - 0.00 in Snow Light Snow
6:32 PM 26.1 °F 13.6 °F 21.9 °F 84% 29.41 in 1.0 mi ENE 16.1 mph - 0.00 in Snow Light Snow
6:51 PM 24.1 °F 11.5 °F 21.0 °F 88% 29.51 in 1.0 mi ENE 15.0 mph - 0.01 in Snow Light Snow
7:13 PM 24.1 °F 11.0 °F 19.9 °F 84% 29.42 in 0.8 mi ENE 16.1 mph - 0.00 in Snow Light Snow
7:25 PM 23.0 °F 10.1 °F 19.9 °F 88% 29.42 in 0.5 mi NE 15.0 mph - 0.00 in Fog , Snow Snow
7:51 PM 21.9 °F 8.7 °F 19.0 °F 89% 29.53 in 0.8 mi NE 15.0 mph 19.6 mph 0.00 in Snow Light Snow
8:13 PM 21.9 °F 9.2 °F 18.0 °F 85% 29.43 in 0.8 mi NE 13.8 mph - 0.02 in Snow Light Snow
8:34 PM 21.0 °F 8.6 °F 17.1 °F 85% 29.44 in 1.0 mi NNE 12.7 mph - 0.03 in Snow Light Snow
8:43 PM 21.0 °F 9.9 °F 17.1 °F 85% 29.45 in 0.8 mi NNE 10.4 mph - 0.03 in Snow Light Snow
8:51 PM 21.0 °F 10.6 °F 17.1 °F 85% 29.54 in 0.8 mi North 9.2 mph - 0.03 in Snow Light Snow
9:01 PM 19.9 °F 6.7 °F 16.0 °F 85% 29.46 in 1.0 mi NNE 13.8 mph - 0.00 in Snow Light Snow
9:51 PM 19.0 °F 7.5 °F 14.0 °F 81% 29.57 in 1.0 mi North 10.4 mph - 0.04 in Snow Light Snow
9:57 PM 18.0 °F 7.7 °F 14.0 °F 84% 29.49 in 1.2 mi North 8.1 mph - 0.01 in   Overcast
10:33 PM 17.1 °F 5.8 °F 12.0 °F 81% 29.52 in 2.5 mi North 9.2 mph - 0.04 in   Haze
10:38 PM 16.0 °F 2.9 °F 12.0 °F 84% 29.52 in 4.0 mi North 11.5 mph - 0.04 in   Overcast
10:51 PM 16.0 °F 2.9 °F 10.9 °F 81% 29.61 in 4.0 mi North 11.5 mph - 0.04 in   Haze
11:08 PM 15.1 °F 1.8 °F 10.0 °F 80% 29.54 in 2.5 mi North 11.5 mph - N/A   Haze
11:15 PM 15.1 °F 1.8 °F 10.0 °F 80% 29.55 in 3.0 mi North 11.5 mph - N/A   Haze
11:51 PM 14.0 °F -0.8 °F 9.0 °F 80% 29.65 in 6.0 mi North 13.8 mph - 0.00 in Snow Light Snow